Location: Burbank
(38.7788°N, 114.0429°W)
Time: 13:44:09
(UTC+00:00)

Vanguard 2 Rocket - Pass Details

Date: 20 May 2026
Orbit: 553 x 3286 km, 32.9° (Epoch: 6 June)

Event Time Altitude Azimuth Distance (km) Brightness Sun altitude
Rises 23:04:28 0° 281° (W) 6,447 12.0 41.1°
Reaches altitude 10° 23:08:48 10° 274° (W) 5,710 12.1 40.2°
Maximum altitude 23:25:02 39° 214° (SW) 4,274 11.2 37.1°
Drops below altitude 10° 23:41:48 10° 154° (SSE) 5,842 10.9 33.8°
Sets 23:46:22 0° 147° (SSE) 6,598 11.0 32.9°
